Вернуться в каталог

BREEZE-M DEB

TANK

АктивенHEO
NORAD 28395·DEBRIS·🇷🇺 Russia

Запущен Aug 4, 2004 с Baikonur Cosmodrome

Loading…

Ближайшие Пролёты (ближайшие 24 часа)

TLE

СвежийSource: Space-Track

Эпоха: Sep 14, 2026, 06:25 UTC

1 28395U 04031C   26257.26801793  .00008145  00000-0  11466-2 0  9991
2 28395  49.4439   9.5839 5137143 134.3312 281.5094  5.40825962409516

Отслеживайте BREEZE-M DEB в реальном времени с AllMySat

Download on the App Store